FW2402 Weather Reports


time (UTC)temp
F
wind
direction
speed
knots
gust
knots
rain 1hr
in
rain 24hr
in
rain mn
in
humidity
%
barometer
mb
20260510054542 71 0 0.0 1.7 0.00 0.00 0.00 93 1013.9
20260510054017 71 0 0.0 1.7 0.00 0.00 0.00 91 1013.8
20260510053522 72 0 0.0 0.0 0.00 0.00 0.00 92 1013.8
20260510053043 72 0 0.0 0.9 0.00 0.00 0.00 93 1013.7
20260510052518 72 0 0.0 0.9 0.00 0.00 0.00 93 1013.8
20260510052018 72 0 0.0 0.9 0.00 0.00 0.00 93 1013.9
20260510051548 72 0 0.0 0.0 0.00 0.00 0.00 92 1013.9
20260510051021 72 0 0.0 0.0 0.00 0.00 0.00 92 1014.0
20260510050517 72 0 0.0 0.0 0.00 0.00 0.00 92 1014.0
20260510050036 72 0 0.0 0.0 0.00 0.00 0.00 92 1014.1
20260510045516 72 0 0.0 0.0 0.00 0.00 0.00 91 1014.1
20260510045018 72 0 0.0 0.0 0.00 0.00 0.00 91 1014.2
20260510044537 73 0 0.0 0.0 0.00 0.00 0.00 91 1014.3
20260510044017 73 0 0.0 0.0 0.00 0.00 0.00 90 1014.3
20260510043517 73 0 0.0 0.0 0.00 0.00 0.00 90 1014.3
20260510043035 74 0 0.0 0.0 0.00 0.00 0.00 90 1014.3
20260510042519 74 0 0.0 0.0 0.00 0.00 0.00 89 1014.4
20260510042019 74 0 0.0 1.7 0.00 0.00 0.00 89 1014.4
20260510041535 75 0 0.0 2.6 0.00 0.00 0.00 88 1014.2
20260510041018 75 25 0.0 2.6 0.00 0.00 0.00 88 1014.3
20260510040517 75 28 0.9 2.6 0.00 0.00 0.00 88 1014.3
20260510040044 75 29 0.9 3.5 0.00 0.00 0.00 88 1014.2
20260510035516 75 87 1.7 5.2 0.00 0.00 0.00 88 1014.1
20260510035020 75 69 1.7 5.2 0.00 0.00 0.00 88 1014.0
20260510034532 75 63 1.7 3.5 0.00 0.00 0.00 88 1014.0
20260510034019 75 59 1.7 4.3 0.00 0.00 0.00 89 1014.1
20260510033516 75 88 1.7 4.3 0.00 0.00 0.00 89 1014.1
20260510033045 74 98 1.7 4.3 0.00 0.00 0.00 89 1014.1
20260510032516 74 94 0.9 2.6 0.00 0.00 0.00 89 1014.1
20260510032017 74 108 0.0 1.7 0.00 0.00 0.00 90 1014.2
20260510031537 74 0 0.0 0.0 0.00 0.00 0.00 89 1014.2
20260510031018 74 0 0.0 0.9 0.00 0.00 0.00 88 1014.3
20260510030518 74 0 0.0 0.9 0.00 0.00 0.00 88 1014.3
20260510030037 75 0 0.0 1.7 0.00 0.00 0.00 88 1014.2
20260510025519 75 0 0.0 2.6 0.00 0.00 0.00 87 1014.1
20260510025020 76 0 0.0 3.5 0.00 0.00 0.00 86 1014.0
20260510024536 76 0 0.9 3.5 0.00 0.00 0.00 87 1014.1
20260510024018 76 82 0.9 3.5 0.00 0.00 0.00 87 1014.1
20260510023520 76 68 0.9 2.6 0.00 0.00 0.00 86 1014.1
20260510023034 76 78 1.7 2.6 0.00 0.00 0.00 86 1014.0
20260510022520 76 72 0.9 3.5 0.00 0.00 0.00 85 1013.9
20260510022017 76 72 0.9 4.3 0.00 0.00 0.00 85 1013.9
20260510021543 76 59 1.7 4.3 0.00 0.00 0.00 84 1013.9
20260510021018 76 77 1.7 4.3 0.00 0.00 0.00 83 1013.8
20260510020516 77 84 1.7 4.3 0.00 0.00 0.00 82 1013.8
20260510020037 77 65 1.7 4.3 0.00 0.00 0.00 82 1013.8
20260510015516 76 49 1.7 3.5 0.00 0.00 0.00 82 1013.7
20260510015016 76 0 0.0 0.0 0.00 0.00 0.00 83 1013.7
20260510014536 76 0 0.0 0.0 0.00 0.00 0.00 82 1013.7
20260510014017 76 0 0.0 0.0 0.00 0.00 0.00 80 1013.6
20260510013517 76 0 0.0 0.0 0.00 0.00 0.00 80 1013.6
20260510013036 77 0 0.0 0.0 0.00 0.00 0.00 78 1013.5
20260510012517 77 0 0.0 0.0 0.00 0.00 0.00 77 1013.4
20260510012017 78 0 0.0 0.0 0.00 0.00 0.00 76 1013.4
20260510011538 78 0 0.0 0.0 0.00 0.00 0.00 75 1013.3
20260510011016 78 0 0.0 0.0 0.00 0.00 0.00 76 1013.2
20260510010516 78 0 0.0 0.0 0.00 0.00 0.00 75 1013.3
20260510010045 79 0 0.0 0.0 0.00 0.00 0.00 75 1013.3
20260510005517 79 0 0.0 0.0 0.00 0.00 0.00 75 1013.1
20260510005020 79 0 0.0 0.0 0.00 0.00 0.00 75 1013.2
20260510004541 79 0 0.0 0.0 0.00 0.00 0.00 74 1013.2
20260510004016 79 0 0.0 1.7 0.00 0.00 0.00 74 1013.0
20260510003516 79 0 0.0 1.7 0.00 0.00 0.00 74 1013.0
20260510003046 79 0 0.0 3.5 0.00 0.00 0.00 74 1012.9
20260510002516 79 0 0.0 6.1 0.00 0.00 0.00 74 1012.8
20260510002016 80 286 1.7 6.1 0.00 0.00 0.00 73 1012.9
20260510001537 80 284 2.6 7.8 0.00 0.00 0.00 73 1012.7
20260510001016 80 310 1.7 7.8 0.00 0.00 0.00 72 1012.6
20260510000516 80 271 2.6 10.4 0.00 0.00 0.00 71 1012.4
20260510000037 81 277 1.7 10.4 0.00 0.00 0.00 70 1012.3
20260509235519 81 288 3.5 10.4 0.00 0.00 0.00 70 1012.3
20260509235017 81 285 3.5 9.6 0.00 0.00 0.00 69 1012.3
20260509234534 81 286 3.5 9.6 0.00 0.00 0.00 69 1012.3
20260509234018 82 273 4.3 9.6 0.00 0.00 0.00 68 1012.3
20260509233516 82 262 3.5 9.6 0.00 0.00 0.00 67 1012.2
20260509233034 83 316 2.6 7.0 0.00 0.00 0.00 67 1012.2
20260509232517 83 285 2.6 9.6 0.00 0.00 0.00 65 1012.0
20260509232019 83 268 2.6 11.3 0.00 0.00 0.00 64 1012.0
20260509231538 83 245 6.1 12.2 0.00 0.00 0.00 63 1011.9
20260509231016 84 269 7.0 13.9 0.00 0.00 0.00 63 1011.8
20260509230516 84 289 7.8 13.9 0.00 0.00 0.00 62 1011.7
20260509230032 84 281 5.2 13.9 0.00 0.00 0.00 61 1011.6
20260509225516 85 269 6.1 12.2 0.00 0.00 0.00 60 1011.6
20260509225019 85 253 7.0 13.0 0.00 0.00 0.00 59 1011.5
20260509224537 86 286 5.2 13.0 0.00 0.00 0.00 59 1011.4
20260509224020 86 269 6.1 13.0 0.00 0.00 0.00 58 1011.2
20260509223520 86 280 4.3 11.3 0.00 0.00 0.00 58 1011.1
20260509223035 86 256 7.0 12.2 0.00 0.00 0.00 58 1011.0
20260509222517 87 261 7.0 12.2 0.00 0.00 0.00 58 1011.0
20260509222016 87 281 5.2 10.4 0.00 0.00 0.00 58 1010.9
20260509221535 87 261 4.3 11.3 0.00 0.00 0.00 57 1010.9
20260509221020 88 263 4.3 11.3 0.00 0.00 0.00 57 1010.9
20260509220519 88 290 5.2 9.6 0.00 0.00 0.00 56 1010.8
20260509220044 88 19 4.3 9.6 0.00 0.00 0.00 57 1010.7
20260509215519 88 272 3.5 9.6 0.00 0.00 0.00 58 1010.7
20260509215020 88 287 5.2 9.6 0.00 0.00 0.00 58 1010.7
20260509214556 88 256 3.5 8.7 0.00 0.00 0.00 58 1010.7
20260509214022 88 275 3.5 8.7 0.00 0.00 0.00 58 1010.6
20260509213516 88 280 4.3 8.7 0.00 0.00 0.00 58 1010.6
20260509213041 88 288 3.5 8.7 0.00 0.00 0.00 57 1010.5
20260509212516 88 281 2.6 8.7 0.00 0.00 0.00 57 1010.4
20260509212017 88 298 4.3 8.7 0.00 0.00 0.00 55 1010.5
20260509211538 90 294 1.7 8.7 0.00 0.00 0.00 55 1010.3
20260509211016 90 265 4.3 10.4 0.00 0.00 0.00 55 1010.3
20260509210516 89 279 5.2 10.4 0.00 0.00 0.00 55 1010.2
20260509210045 89 282 5.2 13.9 0.00 0.00 0.00 55 1010.3
20260509205516 90 81 5.2 13.9 0.00 0.00 0.00 54 1010.2
20260509205016 91 265 7.8 12.2 0.00 0.00 0.00 52 1010.1
20260509204536 90 259 6.1 12.2 0.00 0.00 0.00 53 1010.1
20260509204017 90 279 8.7 12.2 0.00 0.00 0.00 52 1010.2
20260509203518 90 274 4.3 9.6 0.00 0.00 0.00 54 1010.2
20260509203038 91 282 5.2 14.8 0.00 0.00 0.00 51 1010.2
20260509202518 90 298 8.7 14.8 0.00 0.00 0.00 55 1010.1
20260509202023 88 284 7.8 13.0 0.00 0.00 0.00 55 1010.2
20260509201533 89 275 8.7 13.9 0.00 0.00 0.00 56 1010.2
20260509201016 88 248 7.8 15.6 0.00 0.00 0.00 57 1010.3
20260509200516 88 267 11.3 15.6 0.00 0.00 0.00 58 1010.3
20260509200046 87 263 8.7 13.0 0.00 0.00 0.00 59 1010.3
20260509195517 87 261 7.8 13.0 0.00 0.00 0.00 61 1010.3
20260509195016 86 296 5.2 9.6 0.00 0.00 0.00 63 1010.5
20260509194548 86 285 2.6 7.8 0.00 0.00 0.00 63 1010.3
20260509194018 85 323 2.6 7.8 0.00 0.00 0.00 63 1010.6
20260509193520 85 268 2.6 9.6 0.00 0.00 0.00 63 1010.7
20260509193039 84 288 4.3 13.0 0.00 0.00 0.00 63 1010.7
20260509192516 85 306 5.2 13.0 0.00 0.00 0.00 62 1010.8
20260509192016 86 252 6.1 12.2 0.00 0.00 0.00 61 1010.8
20260509191536 88 266 1.7 13.0 0.00 0.00 0.00 56 1011.0
20260509191019 91 298 7.0 13.0 0.00 0.00 0.00 46 1010.8
20260509190517 92 209 5.2 13.0 0.00 0.00 0.00 46 1010.7
20260509190034 93 271 0.9 13.0 0.00 0.00 0.00 46 1010.7
20260509185521 95 257 7.0 13.0 0.00 0.00 0.00 43 1010.6
20260509185018 94 282 5.2 13.9 0.00 0.00 0.00 46 1010.7
20260509184541 92 198 4.3 13.9 0.00 0.00 0.00 49 1010.8
20260509184019 91 246 5.2 10.4 0.00 0.00 0.00 49 1011.1
20260509183517 92 234 5.2 14.8 0.00 0.00 0.00 48 1011.2
20260509183058 92 251 7.8 14.8 0.00 0.00 0.00 48 1011.2
20260509182519 91 269 8.7 13.9 0.00 0.00 0.00 49 1011.2
20260509182020 91 242 6.1 10.4 0.00 0.00 0.00 50 1011.3
20260509181541 92 261 3.5 7.8 0.00 0.00 0.00 48 1011.3
20260509181017 93 248 2.6 8.7 0.00 0.00 0.00 50 1011.4
20260509180523 91 215 4.3 8.7 0.00 0.00 0.00 50 1011.5
20260509180037 92 260 2.6 10.4 0.00 0.00 0.00 49 1011.6
20260509175520 94 235 3.5 10.4 0.00 0.00 0.00 46 1011.6
20260509175016 92 257 3.5 9.6 0.00 0.00 0.00 48 1011.7
20260509174545 93 250 1.7 9.6 0.00 0.00 0.00 47 1011.7
20260509174024 94 250 1.7 11.3 0.00 0.00 0.00 47 1011.9
20260509173520 93 261 2.6 11.3 0.00 0.00 0.00 46 1011.9
20260509173045 94 259 2.6 9.6 0.00 0.00 0.00 47 1011.8
20260509172519 94 192 2.6 9.6 0.00 0.00 0.00 46 1011.8
20260509172025 95 229 1.7 10.4 0.00 0.00 0.00 46 1011.7
20260509171545 93 236 3.5 10.4 0.00 0.00 0.00 49 1011.8
20260509171017 93 294 1.7 9.6 0.00 0.00 0.00 48 1011.9
20260509170517 92 245 2.6 10.4 0.00 0.00 0.00 49 1012.0
20260509170041 91 224 5.2 10.4 0.00 0.00 0.00 50 1011.9
20260509165518 92 220 4.3 10.4 0.00 0.00 0.00 51 1012.1
20260509165017 91 242 0.9 9.6 0.00 0.00 0.00 51 1012.2
20260509164537 92 236 2.6 9.6 0.00 0.00 0.00 49 1012.1
20260509164018 93 236 1.7 9.6 0.00 0.00 0.00 49 1012.2
20260509163517 91 171 1.7 9.6 0.00 0.00 0.00 51 1012.4
20260509163045 90 268 4.3 13.0 0.00 0.00 0.00 52 1012.5
20260509162522 90 238 5.2 13.0 0.00 0.00 0.00 51 1012.5
20260509162018 90 207 1.7 11.3 0.00 0.00 0.00 52 1012.4
20260509161542 88 265 5.2 11.3 0.00 0.00 0.00 55 1012.5
20260509161020 90 211 3.5 9.6 0.00 0.00 0.00 52 1012.5
20260509160518 91 136 2.6 9.6 0.00 0.00 0.00 51 1012.4
20260509160042 90 0 0.9 9.6 0.00 0.00 0.00 52 1012.5
20260509155517 90 227 1.7 8.7 0.00 0.00 0.00 52 1012.5
20260509155017 90 243 0.9 8.7 0.00 0.00 0.00 54 1012.5
20260509154542 89 278 5.2 8.7 0.00 0.00 0.00 53 1012.5
20260509154017 90 0 1.7 7.8 0.00 0.00 0.00 53 1012.5
20260509153518 88 242 2.6 8.7 0.00 0.00 0.00 55 1012.5
20260509153048 88 233 3.5 9.6 0.00 0.00 0.00 57 1012.7
20260509152518 87 250 4.3 9.6 0.00 0.00 0.00 57 1012.8
20260509152018 87 290 6.1 9.6 0.00 0.00 0.00 57 1012.7
20260509151541 88 286 0.9 7.8 0.00 0.00 0.00 57 1013.0
20260509151021 87 188 1.7 7.8 0.00 0.00 0.00 59 1013.0
20260509150521 86 263 2.6 7.0 0.00 0.00 0.00 61 1013.1
20260509150042 86 112 1.7 7.0 0.00 0.00 0.00 61 1013.1
20260509145520 85 248 3.5 7.0 0.00 0.00 0.00 62 1013.2
20260509145018 86 242 0.9 6.1 0.00 0.00 0.00 65 1013.2
20260509144534 84 269 0.9 6.1 0.00 0.00 0.00 67 1013.3
20260509144018 83 285 2.6 6.1 0.00 0.00 0.00 69 1013.3
20260509143518 83 277 0.0 6.1 0.00 0.00 0.00 70 1013.3
20260509143051 82 132 1.7 7.0 0.00 0.00 0.00 72 1013.3
20260509142518 83 246 2.6 7.0 0.00 0.00 0.00 70 1013.2
20260509142018 84 259 0.0 2.6 0.00 0.00 0.00 70 1013.1
20260509141541 84 349 0.9 4.3 0.00 0.00 0.00 72 1013.1
20260509141019 82 227 0.9 4.3 0.00 0.00 0.00 74 1013.0
20260509140520 82 181 0.9 3.5 0.00 0.00 0.00 75 1013.0
20260509140045 81 265 0.9 2.6 0.00 0.00 0.00 76 1013.0
20260509135520 81 0 0.9 5.2 0.00 0.00 0.00 75 1013.1
20260509135020 81 207 0.9 6.1 0.00 0.00 0.00 76 1013.1
20260509134537 81 89 2.6 6.1 0.00 0.00 0.00 75 1013.1
20260509134019 81 134 0.9 7.0 0.00 0.00 0.00 77 1012.9
20260509133519 80 153 2.6 7.0 0.00 0.00 0.00 78 1012.9
20260509133040 79 139 3.5 7.0 0.00 0.00 0.00 79 1012.9
20260509132520 79 141 2.6 6.1 0.00 0.00 0.00 79 1012.9
20260509132018 79 138 2.6 6.1 0.00 0.00 0.00 80 1012.9
20260509131537 78 119 1.7 6.1 0.00 0.00 0.00 82 1013.0
20260509131018 77 156 0.9 5.2 0.00 0.00 0.00 83 1012.9
20260509130520 78 139 1.7 5.2 0.00 0.00 0.00 82 1013.1
20260509130037 77 85 2.6 6.1 0.00 0.00 0.00 84 1013.1
20260509125523 77 150 2.6 6.1 0.00 0.00 0.00 85 1013.1
20260509125019 76 123 2.6 5.2 0.00 0.00 0.00 85 1013.1
20260509124532 76 148 1.7 5.2 0.00 0.00 0.00 86 1013.0
20260509124019 75 103 1.7 6.1 0.00 0.00 0.00 88 1013.0
20260509123516 75 113 2.6 7.0 0.00 0.00 0.00 90 1013.0
20260509123035 74 106 2.6 7.0 0.00 0.00 0.00 92 1012.9
20260509122515 74 113 3.5 6.1 0.00 0.00 0.00 92 1012.9
20260509122019 73 117 1.7 5.2 0.00 0.00 0.00 94 1012.9
20260509121541 73 113 1.7 5.2 0.00 0.00 0.00 95 1013.0
20260509121018 72 120 1.7 3.5 0.00 0.00 0.00 95 1012.9
20260509120519 72 82 1.7 3.5 0.00 0.00 0.00 96 1012.8
20260509120038 72 107 0.9 3.5 0.00 0.00 0.00 96 1012.9
20260509115517 71 92 1.7 3.5 0.00 0.00 0.00 96 1013.0
20260509115018 72 0 0.9 2.6 0.00 0.00 0.00 96 1012.9
20260509114541 71 113 1.7 2.6 0.00 0.00 0.00 96 1012.7
20260509114016 71 115 0.0 1.7 0.00 0.00 0.00 96 1012.8
20260509113520 71 0 0.0 0.0 0.00 0.00 0.00 96 1012.7
20260509113041 71 0 0.0 0.0 0.00 0.00 0.00 96 1012.7
20260509112519 71 0 0.0 0.0 0.00 0.00 0.00 96 1012.6
20260509112020 71 0 0.0 0.0 0.00 0.00 0.00 96 1012.5
20260509111540 71 0 0.0 0.0 0.00 0.00 0.00 96 1012.5
20260509111020 70 0 0.0 1.7 0.00 0.00 0.00 96 1012.5
20260509110518 70 0 0.0 2.6 0.00 0.00 0.00 96 1012.5
20260509110038 70 263 0.9 2.6 0.00 0.00 0.00 96 1012.4
20260509105517 70 269 0.0 1.7 0.00 0.00 0.00 96 1012.3
20260509105018 70 248 0.0 1.7 0.00 0.00 0.00 96 1012.2
20260509104539 70 0 0.0 1.7 0.00 0.00 0.00 96 1012.1
20260509104016 70 0 0.0 1.7 0.00 0.00 0.00 96 1012.1
20260509103517 70 0 0.0 2.6 0.00 0.00 0.00 96 1012.0
20260509103041 70 0 0.0 3.5 0.00 0.00 0.00 96 1012.0
20260509102518 70 0 0.0 3.5 0.00 0.00 0.00 96 1012.0
20260509102017 70 69 0.0 1.7 0.00 0.00 0.00 96 1012.0
20260509101536 70 0 0.0 2.6 0.00 0.00 0.00 96 1011.9
20260509101017 70 0 0.0 3.5 0.00 0.00 0.00 96 1011.8
20260509100517 69 0 0.9 3.5 0.00 0.00 0.00 96 1011.7
20260509100049 69 23 0.9 2.6 0.00 0.00 0.00 96 1011.8
20260509095521 69 0 0.9 2.6 0.00 0.00 0.00 96 1011.7
20260509095017 66 0 0.0 0.0 0.00 0.00 0.00 96 1011.8
20260509094542 66 0 0.0 0.0 0.00 0.00 0.00 95 1011.8
20260509094017 66 0 0.0 0.0 0.00 0.00 0.00 95 1011.7
20260509093517 66 0 0.0 0.0 0.00 0.00 0.00 95 1011.9
20260509093042 66 0 0.0 0.0 0.00 0.00 0.00 95 1011.7
20260509092517 66 0 0.0 0.0 0.00 0.00 0.00 95 1011.9
20260509092021 67 0 0.0 0.0 0.00 0.00 0.00 95 1011.9
20260509091538 67 0 0.0 0.0 0.00 0.00 0.00 95 1011.8
20260509091017 67 0 0.0 0.0 0.00 0.00 0.00 95 1011.9
20260509090517 67 0 0.0 0.0 0.00 0.00 0.00 95 1011.9
20260509090042 67 0 0.0 0.0 0.00 0.00 0.00 95 1011.9
20260509085518 67 0 0.0 0.0 0.00 0.00 0.00 95 1011.9
20260509085017 67 0 0.0 0.0 0.00 0.00 0.00 95 1012.1
20260509084541 67 0 0.0 0.0 0.00 0.00 0.00 95 1012.1
20260509084021 66 0 0.0 0.0 0.00 0.00 0.00 95 1012.1
20260509083520 67 0 0.0 0.0 0.00 0.00 0.00 95 1012.2
20260509083043 67 0 0.0 0.0 0.00 0.00 0.00 95 1012.2
20260509082516 68 0 0.0 0.0 0.00 0.00 0.00 95 1012.1
20260509082016 67 0 0.0 0.0 0.00 0.00 0.00 94 1012.0
20260509081539 68 0 0.0 0.0 0.00 0.00 0.00 95 1012.1
20260509081017 68 0 0.0 0.0 0.00 0.00 0.00 94 1012.0
20260509080518 69 0 0.0 0.0 0.00 0.00 0.00 94 1012.1
20260509080041 69 0 0.0 0.0 0.00 0.00 0.00 95 1012.1
20260509075517 69 0 0.0 0.0 0.00 0.00 0.00 95 1012.1
20260509075017 69 0 0.0 0.0 0.00 0.00 0.00 95 1012.3
20260509074536 69 0 0.0 0.0 0.00 0.00 0.00 95 1012.2
20260509074017 69 0 0.0 0.0 0.00 0.00 0.00 95 1012.3
20260509073521 69 0 0.0 0.0 0.00 0.00 0.00 94 1012.3
20260509073043 69 0 0.0 0.0 0.00 0.00 0.00 95 1012.4
20260509072517 69 0 0.0 0.0 0.00 0.00 0.00 94 1012.4
20260509072020 69 0 0.0 0.0 0.00 0.00 0.00 94 1012.4
20260509071533 68 0 0.0 0.0 0.00 0.00 0.00 94 1012.6
20260509071017 69 0 0.0 0.0 0.00 0.00 0.00 94 1012.6
20260509070517 69 0 0.0 0.0 0.00 0.00 0.00 94 1012.6
20260509070044 70 0 0.0 0.0 0.00 0.00 0.00 94 1012.7
20260509065516 70 0 0.0 0.0 0.00 0.00 0.00 94 1012.7
20260509065016 69 0 0.0 0.0 0.00 0.00 0.00 95 1012.7
20260509064541 69 0 0.0 0.0 0.00 0.00 0.00 95 1012.8
20260509064017 68 0 0.0 0.0 0.00 0.00 0.00 94 1012.9
20260509063523 69 0 0.0 0.0 0.00 0.00 0.00 94 1012.9
20260509063038 69 0 0.0 0.0 0.00 0.00 0.00 94 1012.9
20260509062518 69 0 0.0 0.0 0.00 0.00 0.00 94 1013.0
20260509062018 68 0 0.0 0.0 0.00 0.00 0.00 94 1013.1
20260509061538 69 0 0.0 0.0 0.00 0.00 0.00 94 1013.0
20260509061019 70 0 0.0 0.0 0.00 0.00 0.00 94 1013.1
20260509060516 69 0 0.0 0.0 0.00 0.00 0.00 94 1013.1
20260509060039 70 0 0.0 0.0 0.00 0.00 0.00 94 1013.0
20260509055520 70 0 0.0 0.0 0.00 0.00 0.00 94 1013.0
20260509055020 70 0 0.0 0.0 0.00 0.00 0.00 94 1013.1